Location: Laverne
(36.7100°N, 99.8930°W)
Time: 06:33:16
(UTC-06:00)

Nadezhda 1 Rocket - Pass Details

Date: 19 October 2017
Orbit: 940 x 1006 km, 83.0° (Epoch: 18 November)

Event Time Altitude Azimuth Distance (km) Brightness Sun altitude
Exits shadow 05:27:22 74° 191° (S) 1,045 3.9 -29.4°
Maximum altitude 05:28:01 88° 278° (W) 1,010 3.9 -29.3°
Drops below altitude 10° 05:34:26 10° 6° (N) 2,773 6.5 -28.0°
Sets 05:36:57 0° 7° (N) 3,719 7.2 -27.5°
